Time,TemperatureF,DewpointF,PressureIn,WindDirection,WindDirectionDegrees,WindSpeedMPH,WindSpeedGustMPH,Humidity,HourlyPrecipIn,Conditions,Clouds,dailyrainin,SoftwareType,DateUTC
2013-02-08 00:01:00,36.0,34.2,30.00,NW,322,1.0,4.0,93,0.00,,,0.21,meteohub,2013-02-08 08:01:00,
2013-02-08 00:06:00,35.8,34.0,29.99,NNW,329,0.0,4.0,93,0.00,,,0.00,meteohub,2013-02-08 08:06:00,
2013-02-08 00:11:00,35.6,33.8,30.00,NNW,329,0.0,4.0,93,0.00,,,0.00,meteohub,2013-02-08 08:11:00,
2013-02-08 00:16:00,35.4,33.8,29.99,NNW,329,0.0,3.0,94,0.00,,,0.00,meteohub,2013-02-08 08:16:00,
2013-02-08 00:21:00,35.2,33.6,29.99,NNW,329,0.0,2.0,94,0.00,,,0.00,meteohub,2013-02-08 08:21:00,
2013-02-08 00:26:00,35.2,33.6,29.99,NNW,330,1.0,1.0,94,0.00,,,0.00,meteohub,2013-02-08 08:26:00,
2013-02-08 00:31:00,35.2,33.6,29.99,NNW,347,0.0,2.0,94,0.00,,,0.00,meteohub,2013-02-08 08:31:00,
2013-02-08 00:36:00,35.4,33.8,29.99,NNW,347,1.0,2.0,94,0.00,,,0.00,meteohub,2013-02-08 08:36:00,
2013-02-08 00:41:00,35.6,34.0,29.99,NNW,347,0.0,2.0,94,0.00,,,0.00,meteohub,2013-02-08 08:41:00,
2013-02-08 00:46:00,35.6,34.0,29.99,NNW,347,0.0,2.0,94,0.00,,,0.00,meteohub,2013-02-08 08:46:00,
2013-02-08 00:51:00,35.4,33.8,29.98,NNW,347,0.0,2.0,94,0.00,,,0.00,meteohub,2013-02-08 08:51:00,
2013-02-08 00:56:00,35.2,33.6,29.98,NNW,347,0.0,2.0,94,0.00,,,0.00,meteohub,2013-02-08 08:56:00,
2013-02-08 01:01:00,35.1,33.4,29.98,NNW,347,0.0,0.0,94,0.00,,,0.00,meteohub,2013-02-08 09:01:00,
2013-02-08 01:06:00,35.1,33.4,29.98,NNW,347,2.0,2.0,94,0.00,,,0.00,meteohub,2013-02-08 09:06:00,
2013-02-08 01:11:00,34.0,32.2,29.98,NNW,347,1.0,3.0,93,0.00,,,0.00,meteohub,2013-02-08 09:11:00,
2013-02-08 01:16:00,33.3,31.6,29.98,NNW,347,1.0,3.0,94,0.00,,,0.00,meteohub,2013-02-08 09:16:00,
2013-02-08 01:21:00,32.9,31.6,29.98,NNW,347,0.0,3.0,95,0.00,,,0.00,meteohub,2013-02-08 09:21:00,
2013-02-08 01:26:00,32.7,31.5,29.98,NNW,347,0.0,2.0,95,0.00,,,0.00,meteohub,2013-02-08 09:26:00,
2013-02-08 01:31:00,32.0,30.7,29.98,NNW,347,0.0,2.0,95,0.00,,,0.00,meteohub,2013-02-08 09:31:00,
2013-02-08 01:36:00,32.0,30.9,29.98,NNW,347,0.0,1.0,96,0.00,,,0.00,meteohub,2013-02-08 09:36:00,
2013-02-08 01:41:00,32.0,30.9,29.98,NNW,347,0.0,0.0,96,0.00,,,0.00,meteohub,2013-02-08 09:41:00,
2013-02-08 01:46:00,31.6,30.6,29.98,NNW,347,1.0,2.0,96,0.00,,,0.00,meteohub,2013-02-08 09:46:00,
2013-02-08 01:51:00,31.6,30.6,29.98,NNW,347,3.0,3.0,96,0.00,,,0.00,meteohub,2013-02-08 09:51:00,
2013-02-08 01:56:00,31.5,30.4,29.98,NNW,347,2.0,3.0,96,0.00,,,0.00,meteohub,2013-02-08 09:56:00,
2013-02-08 02:01:00,31.5,30.4,29.98,NNW,347,2.0,3.0,96,0.00,,,0.00,meteohub,2013-02-08 10:01:00,
2013-02-08 02:06:00,31.3,30.2,29.97,NNW,347,1.0,3.0,96,0.00,,,0.00,meteohub,2013-02-08 10:06:00,
2013-02-08 02:11:00,30.9,29.8,29.97,NNW,347,1.0,3.0,96,0.00,,,0.00,meteohub,2013-02-08 10:11:00,
2013-02-08 02:16:00,30.7,29.7,29.98,NNW,347,1.0,3.0,96,0.00,,,0.00,meteohub,2013-02-08 10:16:00,
2013-02-08 02:21:00,30.7,30.0,29.97,NNW,347,2.0,3.0,97,0.00,,,0.00,meteohub,2013-02-08 10:21:00,
2013-02-08 02:26:00,31.6,30.9,29.97,NNW,347,3.0,3.0,97,0.00,,,0.00,meteohub,2013-02-08 10:26:00,
2013-02-08 02:31:00,31.5,30.7,29.97,NNE,28,4.0,5.0,97,0.00,,,0.00,meteohub,2013-02-08 10:31:00,
2013-02-08 02:36:00,31.8,31.1,29.97,North,9,4.0,5.0,97,0.00,,,0.00,meteohub,2013-02-08 10:36:00,
2013-02-08 02:41:00,31.8,31.1,29.96,NNE,13,3.0,5.0,97,0.00,,,0.00,meteohub,2013-02-08 10:41:00,
2013-02-08 02:46:00,32.0,31.3,29.96,ENE,59,5.0,5.0,97,0.00,,,0.00,meteohub,2013-02-08 10:46:00,
2013-02-08 02:51:00,32.4,31.6,29.96,NE,53,4.0,7.0,97,0.00,,,0.00,meteohub,2013-02-08 10:51:00,
2013-02-08 02:56:00,33.3,32.7,29.96,NE,55,5.0,7.0,98,0.00,,,0.00,meteohub,2013-02-08 10:56:00,
2013-02-08 03:01:00,33.6,33.1,29.96,NE,43,6.0,8.0,98,0.00,,,0.00,meteohub,2013-02-08 11:01:00,
2013-02-08 03:06:00,34.2,33.6,29.96,ENE,59,5.0,10.0,98,0.00,,,0.00,meteohub,2013-02-08 11:06:00,
2013-02-08 03:11:00,34.5,33.8,29.96,NE,38,6.0,10.0,97,0.00,,,0.00,meteohub,2013-02-08 11:11:00,
2013-02-08 03:16:00,34.9,33.8,29.96,NE,39,4.0,10.0,96,0.00,,,0.00,meteohub,2013-02-08 11:16:00,
2013-02-08 03:21:00,35.1,33.8,29.96,ENE,58,7.0,10.0,95,0.00,,,0.00,meteohub,2013-02-08 11:21:00,
2013-02-08 03:26:00,35.1,33.8,29.96,NNE,26,5.0,10.0,95,0.00,,,0.00,meteohub,2013-02-08 11:26:00,
2013-02-08 03:31:00,35.6,33.8,29.96,NE,51,9.0,11.0,93,0.00,,,0.00,meteohub,2013-02-08 11:31:00,
2013-02-08 03:36:00,35.8,33.6,29.96,NNE,26,8.0,11.0,92,0.00,,,0.00,meteohub,2013-02-08 11:36:00,
2013-02-08 03:41:00,35.8,33.6,29.96,NNE,32,8.0,12.0,92,0.00,,,0.00,meteohub,2013-02-08 11:41:00,
2013-02-08 03:46:00,35.6,33.4,29.96,NE,53,9.0,12.0,92,0.00,,,0.00,meteohub,2013-02-08 11:46:00,
2013-02-08 03:51:00,35.6,33.3,29.96,NE,46,5.0,12.0,91,0.00,,,0.00,meteohub,2013-02-08 11:51:00,
2013-02-08 03:56:00,35.4,33.1,29.96,NE,54,10.0,12.0,91,0.00,,,0.00,meteohub,2013-02-08 11:56:00,
2013-02-08 04:01:00,35.4,33.1,29.96,NE,49,8.0,12.0,91,0.00,,,0.00,meteohub,2013-02-08 12:01:00,
2013-02-08 04:06:00,35.4,33.1,29.96,NNE,17,5.0,12.0,91,0.00,,,0.00,meteohub,2013-02-08 12:06:00,
2013-02-08 04:11:00,35.4,33.1,29.96,NNE,33,5.0,12.0,91,0.00,,,0.00,meteohub,2013-02-08 12:11:00,
2013-02-08 04:17:00,35.4,33.1,29.96,NE,38,5.0,12.0,91,0.00,,,0.00,meteohub,2013-02-08 12:17:00,
2013-02-08 04:22:00,35.4,33.1,29.96,NE,44,7.0,12.0,91,0.00,,,0.00,meteohub,2013-02-08 12:22:00,
2013-02-08 04:27:00,35.8,33.6,29.96,NNE,26,9.0,11.0,92,0.00,,,0.00,meteohub,2013-02-08 12:27:00,
2013-02-08 04:32:00,35.8,33.4,29.96,North,355,8.0,14.0,91,0.00,,,0.00,meteohub,2013-02-08 12:32:00,
2013-02-08 04:37:00,36.0,33.6,29.96,NE,42,11.0,14.0,91,0.00,,,0.00,meteohub,2013-02-08 12:37:00,
2013-02-08 04:42:00,36.0,33.6,29.96,ENE,60,10.0,16.0,91,0.00,,,0.00,meteohub,2013-02-08 12:42:00,
2013-02-08 04:47:00,36.0,33.6,29.96,ENE,63,9.0,16.0,91,0.00,,,0.00,meteohub,2013-02-08 12:47:00,
2013-02-08 04:52:00,36.0,33.6,29.96,NE,44,10.0,16.0,91,0.00,,,0.00,meteohub,2013-02-08 12:52:00,
2013-02-08 04:57:00,36.0,33.6,29.96,NE,42,11.0,15.0,91,0.00,,,0.00,meteohub,2013-02-08 12:57:00,
2013-02-08 05:02:00,36.0,33.6,29.96,NE,36,6.0,15.0,91,0.00,,,0.00,meteohub,2013-02-08 13:02:00,
2013-02-08 05:07:00,36.0,33.6,29.96,NE,52,12.0,15.0,91,0.00,,,0.00,meteohub,2013-02-08 13:07:00,
2013-02-08 05:12:00,35.8,33.4,29.96,NNE,29,8.0,14.0,91,0.00,,,0.00,meteohub,2013-02-08 13:12:00,
2013-02-08 05:17:00,35.8,33.6,29.96,NE,42,7.0,13.0,92,0.00,,,0.00,meteohub,2013-02-08 13:17:00,
2013-02-08 05:22:00,35.8,33.4,29.96,NE,55,9.0,12.0,91,0.00,,,0.00,meteohub,2013-02-08 13:22:00,
2013-02-08 05:27:00,35.8,33.4,29.96,NE,52,10.0,12.0,91,0.00,,,0.00,meteohub,2013-02-08 13:27:00,
2013-02-08 05:32:00,35.8,33.4,29.96,NNE,31,6.0,12.0,91,0.00,,,0.00,meteohub,2013-02-08 13:32:00,
2013-02-08 05:37:00,35.8,33.4,29.96,NE,44,8.0,12.0,91,0.00,,,0.00,meteohub,2013-02-08 13:37:00,
2013-02-08 05:42:00,35.8,33.4,29.96,NNE,27,2.0,13.0,91,0.00,,,0.00,meteohub,2013-02-08 13:42:00,
2013-02-08 05:47:00,35.8,33.4,29.96,NE,49,7.0,13.0,91,0.00,,,0.00,meteohub,2013-02-08 13:47:00,
2013-02-08 05:52:00,35.8,33.4,29.96,NE,38,5.0,13.0,91,0.00,,,0.00,meteohub,2013-02-08 13:52:00,
2013-02-08 05:57:00,35.8,33.4,29.97,NE,46,7.0,12.0,91,0.00,,,0.00,meteohub,2013-02-08 13:57:00,
2013-02-08 06:02:00,36.0,33.6,29.97,NNE,26,11.0,16.0,91,0.00,,,0.00,meteohub,2013-02-08 14:02:00,
2013-02-08 06:07:00,36.0,33.6,29.97,NE,40,4.0,16.0,91,0.00,,,0.00,meteohub,2013-02-08 14:07:00,
2013-02-08 06:12:00,36.0,33.6,29.97,North,9,8.0,16.0,91,0.00,,,0.00,meteohub,2013-02-08 14:12:00,
2013-02-08 06:17:00,35.8,33.1,29.97,NNE,30,6.0,13.0,90,0.00,,,0.00,meteohub,2013-02-08 14:17:00,
2013-02-08 06:22:00,35.8,33.4,29.97,NE,51,6.0,13.0,91,0.00,,,0.00,meteohub,2013-02-08 14:22:00,
2013-02-08 06:27:00,35.8,33.4,29.98,NE,43,12.0,13.0,91,0.00,,,0.00,meteohub,2013-02-08 14:27:00,
2013-02-08 06:32:00,35.8,33.4,29.98,ENE,59,7.0,13.0,91,0.00,,,0.00,meteohub,2013-02-08 14:32:00,
2013-02-08 06:37:00,35.6,33.3,29.98,ENE,57,8.0,13.0,91,0.00,,,0.00,meteohub,2013-02-08 14:37:00,
2013-02-08 06:42:00,35.6,33.3,29.98,ENE,66,7.0,14.0,91,0.00,,,0.00,meteohub,2013-02-08 14:42:00,
2013-02-08 06:47:00,35.4,33.1,29.98,NE,48,7.0,14.0,91,0.00,,,0.00,meteohub,2013-02-08 14:47:00,
2013-02-08 06:52:00,35.4,33.1,29.98,NNE,30,10.0,14.0,91,0.00,,,0.00,meteohub,2013-02-08 14:52:00,
2013-02-08 06:57:00,35.4,33.1,29.98,NE,47,5.0,14.0,91,0.00,,,0.00,meteohub,2013-02-08 14:57:00,
2013-02-08 07:02:00,35.4,33.1,29.98,ENE,64,7.0,12.0,91,0.00,,,0.00,meteohub,2013-02-08 15:02:00,
2013-02-08 07:07:00,35.4,33.3,29.99,NNE,14,6.0,12.0,92,0.00,,,0.00,meteohub,2013-02-08 15:07:00,
2013-02-08 07:12:00,35.4,33.3,29.99,NNE,27,8.0,13.0,92,0.00,,,0.00,meteohub,2013-02-08 15:12:00,
2013-02-08 07:17:00,35.4,33.3,29.99,NE,55,8.0,14.0,92,0.00,,,0.00,meteohub,2013-02-08 15:17:00,
2013-02-08 07:22:00,35.4,33.3,29.99,NE,56,7.0,14.0,92,0.00,,,0.00,meteohub,2013-02-08 15:22:00,
2013-02-08 07:27:00,35.4,33.3,29.99,North,0,7.0,14.0,92,0.00,,,0.00,meteohub,2013-02-08 15:27:00,
2013-02-08 07:32:00,35.4,33.1,29.99,NE,44,7.0,13.0,91,0.00,,,0.00,meteohub,2013-02-08 15:32:00,
2013-02-08 07:37:00,35.4,33.1,29.99,NNE,33,6.0,13.0,91,0.00,,,0.00,meteohub,2013-02-08 15:37:00,
2013-02-08 07:42:00,35.6,33.3,29.99,NE,53,9.0,14.0,91,0.00,,,0.00,meteohub,2013-02-08 15:42:00,
2013-02-08 07:47:00,35.8,33.4,29.99,NE,40,11.0,14.0,91,0.00,,,0.00,meteohub,2013-02-08 15:47:00,
2013-02-08 07:52:00,36.0,33.3,29.99,NNE,17,7.0,17.0,90,0.00,,,0.00,meteohub,2013-02-08 15:52:00,
2013-02-08 07:57:00,36.0,33.3,30.00,ENE,65,8.0,17.0,90,0.00,,,0.00,meteohub,2013-02-08 15:57:00,
2013-02-08 08:02:00,36.0,33.1,30.00,ENE,58,11.0,17.0,89,0.00,,,0.00,meteohub,2013-02-08 16:02:00,
2013-02-08 08:07:00,36.1,33.3,30.00,NE,48,11.0,15.0,89,0.00,,,0.00,meteohub,2013-02-08 16:07:00,
2013-02-08 08:12:00,36.1,33.3,30.00,NE,37,6.0,15.0,89,0.00,,,0.00,meteohub,2013-02-08 16:12:00,
2013-02-08 08:17:00,36.3,33.1,30.01,NNE,23,10.0,14.0,88,0.00,,,0.00,meteohub,2013-02-08 16:17:00,
2013-02-08 08:22:00,36.5,33.3,30.01,NNE,13,7.0,17.0,88,0.00,,,0.00,meteohub,2013-02-08 16:22:00,
2013-02-08 08:27:00,36.7,33.4,30.01,NNE,16,4.0,17.0,88,0.00,,,0.00,meteohub,2013-02-08 16:27:00,
2013-02-08 08:32:00,36.7,33.4,30.01,NE,42,8.0,17.0,88,0.00,,,0.00,meteohub,2013-02-08 16:32:00,
2013-02-08 08:37:00,36.9,33.4,30.01,NNW,342,5.0,13.0,87,0.00,,,0.00,meteohub,2013-02-08 16:37:00,
2013-02-08 08:42:00,36.9,33.4,30.01,ENE,58,8.0,13.0,87,0.00,,,0.00,meteohub,2013-02-08 16:42:00,
2013-02-08 08:47:00,37.2,33.4,30.01,NNW,332,5.0,14.0,86,0.00,,,0.00,meteohub,2013-02-08 16:47:00,
2013-02-08 08:52:00,37.2,33.4,30.01,NE,34,6.0,14.0,86,0.00,,,0.00,meteohub,2013-02-08 16:52:00,
2013-02-08 08:57:00,37.6,33.8,30.01,NW,322,4.0,14.0,86,0.00,,,0.00,meteohub,2013-02-08 16:57:00,
2013-02-08 09:02:00,37.8,33.6,30.02,NNW,336,5.0,15.0,85,0.00,,,0.00,meteohub,2013-02-08 17:02:00,
2013-02-08 09:07:00,37.8,33.6,30.02,NNE,29,10.0,15.0,85,0.00,,,0.00,meteohub,2013-02-08 17:07:00,
2013-02-08 09:12:00,37.9,33.8,30.02,North,9,7.0,15.0,85,0.00,,,0.00,meteohub,2013-02-08 17:12:00,
2013-02-08 09:17:00,38.1,34.0,30.02,NE,40,13.0,17.0,85,0.00,,,0.00,meteohub,2013-02-08 17:17:00,
2013-02-08 09:22:00,38.3,34.2,30.02,NE,39,9.0,17.0,85,0.00,,,0.00,meteohub,2013-02-08 17:22:00,
2013-02-08 09:27:00,38.5,34.3,30.02,NE,53,8.0,17.0,85,0.00,,,0.00,meteohub,2013-02-08 17:27:00,
2013-02-08 09:32:00,38.5,34.3,30.02,North,5,5.0,17.0,85,0.00,,,0.00,meteohub,2013-02-08 17:32:00,
2013-02-08 09:37:00,38.8,34.3,30.03,NNE,12,8.0,17.0,84,0.00,,,0.00,meteohub,2013-02-08 17:37:00,
2013-02-08 09:42:00,39.2,34.7,30.02,North,5,9.0,17.0,84,0.00,,,0.00,meteohub,2013-02-08 17:42:00,
2013-02-08 09:47:00,39.7,35.2,30.02,North,10,6.0,16.0,84,0.00,,,0.00,meteohub,2013-02-08 17:47:00,
2013-02-08 09:52:00,40.1,35.4,30.02,NNE,24,7.0,14.0,83,0.00,,,0.00,meteohub,2013-02-08 17:52:00,
2013-02-08 09:57:00,40.5,35.4,30.03,NE,55,11.0,16.0,82,0.00,,,0.00,meteohub,2013-02-08 17:57:00,
2013-02-08 10:02:00,40.8,35.4,30.02,NE,37,13.0,16.0,81,0.00,,,0.00,meteohub,2013-02-08 18:02:00,
2013-02-08 10:07:00,41.0,35.2,30.02,NNE,20,8.0,17.0,80,0.00,,,0.00,meteohub,2013-02-08 18:07:00,
2013-02-08 10:12:00,41.4,35.4,30.03,NNW,342,3.0,17.0,79,0.00,,,0.00,meteohub,2013-02-08 18:12:00,
2013-02-08 10:17:00,42.4,36.1,30.03,North,355,10.0,17.0,78,0.00,,,0.00,meteohub,2013-02-08 18:17:00,
2013-02-08 10:23:00,42.6,35.2,30.02,North,350,6.0,15.0,75,0.00,,,0.00,meteohub,2013-02-08 18:23:00,
2013-02-08 10:28:00,42.6,35.2,30.02,North,350,6.0,15.0,75,0.00,,,0.00,meteohub,2013-02-08 18:28:00,
2013-02-08 10:33:00,43.3,36.3,30.03,NNE,23,6.0,19.0,76,0.00,,,0.00,meteohub,2013-02-08 18:33:00,
2013-02-08 10:38:00,43.2,35.4,30.03,North,5,6.0,19.0,74,0.00,,,0.00,meteohub,2013-02-08 18:38:00,
2013-02-08 10:43:00,42.8,34.7,30.03,North,349,5.0,19.0,73,0.00,,,0.00,meteohub,2013-02-08 18:43:00,
2013-02-08 10:48:00,43.5,35.4,30.03,NE,38,8.0,14.0,73,0.00,,,0.00,meteohub,2013-02-08 18:48:00,
2013-02-08 10:53:00,44.1,35.6,30.03,North,0,4.0,14.0,72,0.00,,,0.00,meteohub,2013-02-08 18:53:00,
2013-02-08 10:58:00,44.2,35.4,30.03,North,355,6.0,14.0,71,0.00,,,0.00,meteohub,2013-02-08 18:58:00,
2013-02-08 11:03:00,44.6,34.3,30.03,NW,311,5.0,12.0,67,0.00,,,0.00,meteohub,2013-02-08 19:03:00,
2013-02-08 11:08:00,45.0,34.3,30.02,NNW,336,4.0,13.0,66,0.00,,,0.00,meteohub,2013-02-08 19:08:00,
2013-02-08 11:13:00,44.8,34.2,30.02,ENE,60,10.0,14.0,66,0.00,,,0.00,meteohub,2013-02-08 19:13:00,
2013-02-08 11:18:00,45.3,34.3,30.03,North,9,6.0,16.0,65,0.00,,,0.00,meteohub,2013-02-08 19:18:00,
2013-02-08 11:23:00,45.3,33.1,30.02,NE,36,12.0,16.0,62,0.00,,,0.00,meteohub,2013-02-08 19:23:00,
2013-02-08 11:28:00,45.3,33.8,30.02,North,9,8.0,18.0,64,0.00,,,0.00,meteohub,2013-02-08 19:28:00,
2013-02-08 11:33:00,46.0,33.8,30.02,ENE,70,7.0,18.0,62,0.00,,,0.00,meteohub,2013-02-08 19:33:00,
2013-02-08 11:38:00,45.9,33.6,30.02,North,5,3.0,18.0,62,0.00,,,0.00,meteohub,2013-02-08 19:38:00,
2013-02-08 11:43:00,46.6,33.4,30.02,North,11,7.0,14.0,60,0.00,,,0.00,meteohub,2013-02-08 19:43:00,
2013-02-08 11:48:00,46.0,33.3,30.02,NW,311,5.0,15.0,61,0.00,,,0.00,meteohub,2013-02-08 19:48:00,
2013-02-08 11:53:00,45.5,32.9,30.01,NNE,24,6.0,15.0,61,0.00,,,0.00,meteohub,2013-02-08 19:53:00,
2013-02-08 11:58:00,45.9,33.3,30.01,NNE,22,5.0,15.0,61,0.00,,,0.00,meteohub,2013-02-08 19:58:00,
2013-02-08 12:03:00,46.4,34.2,30.01,NE,51,9.0,15.0,62,0.00,,,0.00,meteohub,2013-02-08 20:03:00,
2013-02-08 12:08:00,46.9,34.5,30.01,NE,51,6.0,15.0,62,0.00,,,0.00,meteohub,2013-02-08 20:08:00,
2013-02-08 12:13:00,46.9,33.4,30.01,NE,43,12.0,15.0,59,0.00,,,0.00,meteohub,2013-02-08 20:13:00,
2013-02-08 12:18:00,47.1,33.1,30.00,ENE,60,5.0,16.0,58,0.00,,,0.00,meteohub,2013-02-08 20:18:00,
2013-02-08 12:23:00,46.9,33.8,30.00,NNE,24,7.0,16.0,60,0.00,,,0.00,meteohub,2013-02-08 20:23:00,
2013-02-08 12:28:00,47.8,33.8,30.00,NNE,20,5.0,16.0,58,0.00,,,0.00,meteohub,2013-02-08 20:28:00,
2013-02-08 12:34:00,47.8,32.5,30.00,NE,42,10.0,15.0,55,0.00,,,0.00,meteohub,2013-02-08 20:34:00,
2013-02-08 12:39:00,47.5,33.1,30.00,NNE,17,6.0,14.0,57,0.00,,,0.00,meteohub,2013-02-08 20:39:00,
2013-02-08 12:44:00,47.8,32.0,29.99,NNW,332,5.0,14.0,54,0.00,,,0.00,meteohub,2013-02-08 20:44:00,
2013-02-08 12:49:00,48.9,32.5,29.99,NE,38,5.0,14.0,53,0.00,,,0.00,meteohub,2013-02-08 20:49:00,
2013-02-08 12:54:00,48.9,33.4,29.99,NNE,25,8.0,12.0,55,0.00,,,0.00,meteohub,2013-02-08 20:54:00,
2013-02-08 12:59:00,48.2,30.9,29.99,NW,310,6.0,12.0,51,0.00,,,0.00,meteohub,2013-02-08 20:59:00,
2013-02-08 13:04:00,47.5,32.2,29.99,North,355,5.0,12.0,55,0.00,,,0.00,meteohub,2013-02-08 21:04:00,
2013-02-08 13:09:00,48.4,32.5,29.99,NE,56,4.0,12.0,54,0.00,,,0.00,meteohub,2013-02-08 21:09:00,
2013-02-08 13:14:00,49.5,33.1,29.99,NNE,22,1.0,14.0,53,0.00,,,0.00,meteohub,2013-02-08 21:14:00,
2013-02-08 13:19:00,49.5,30.6,29.99,ENE,72,12.0,14.0,48,0.00,,,0.00,meteohub,2013-02-08 21:19:00,
2013-02-08 13:24:00,49.6,30.7,29.99,North,355,9.0,15.0,48,0.00,,,0.00,meteohub,2013-02-08 21:24:00,
2013-02-08 13:29:00,50.4,32.9,29.99,North,11,3.0,15.0,51,0.00,,,0.00,meteohub,2013-02-08 21:29:00,
2013-02-08 13:34:00,50.5,30.6,29.99,NNE,28,13.0,15.0,46,0.00,,,0.00,meteohub,2013-02-08 21:34:00,
2013-02-08 13:39:00,48.9,27.3,29.99,North,355,6.0,15.0,43,0.00,,,0.00,meteohub,2013-02-08 21:39:00,
2013-02-08 13:44:00,49.5,28.4,29.99,North,349,6.0,15.0,44,0.00,,,0.00,meteohub,2013-02-08 21:44:00,
2013-02-08 13:49:00,49.8,28.8,29.98,NNE,13,3.0,15.0,44,0.00,,,0.00,meteohub,2013-02-08 21:49:00,
2013-02-08 13:54:00,50.4,28.2,29.98,North,11,4.0,15.0,42,0.00,,,0.00,meteohub,2013-02-08 21:54:00,
2013-02-08 13:59:00,50.4,29.3,29.98,NNE,17,8.0,12.0,44,0.00,,,0.00,meteohub,2013-02-08 21:59:00,
2013-02-08 14:04:00,50.4,28.2,29.98,NE,45,7.0,16.0,42,0.00,,,0.00,meteohub,2013-02-08 22:04:00,
2013-02-08 14:09:00,50.4,25.7,29.98,NE,53,13.0,16.0,38,0.00,,,0.00,meteohub,2013-02-08 22:09:00,
2013-02-08 14:14:00,50.4,23.7,29.98,NNW,341,6.0,17.0,35,0.00,,,0.00,meteohub,2013-02-08 22:14:00,
2013-02-08 14:19:00,50.2,25.5,29.98,NE,40,8.0,17.0,38,0.00,,,0.00,meteohub,2013-02-08 22:19:00,
2013-02-08 14:24:00,50.4,25.7,29.98,NNE,15,9.0,17.0,38,0.00,,,0.00,meteohub,2013-02-08 22:24:00,
2013-02-08 14:29:00,50.4,25.0,29.98,NE,53,11.0,15.0,37,0.00,,,0.00,meteohub,2013-02-08 22:29:00,
2013-02-08 14:34:00,50.4,25.0,29.98,NE,39,8.0,16.0,37,0.00,,,0.00,meteohub,2013-02-08 22:34:00,
2013-02-08 14:39:00,50.5,23.9,29.98,NNE,31,11.0,16.0,35,0.00,,,0.00,meteohub,2013-02-08 22:39:00,
2013-02-08 14:44:00,50.7,23.4,29.98,ENE,57,8.0,16.0,34,0.00,,,0.00,meteohub,2013-02-08 22:44:00,
2013-02-08 14:49:00,51.1,23.7,29.97,North,351,7.0,15.0,34,0.00,,,0.00,meteohub,2013-02-08 22:49:00,
2013-02-08 14:54:00,51.3,23.9,29.98,NNW,340,5.0,15.0,34,0.00,,,0.00,meteohub,2013-02-08 22:54:00,
2013-02-08 14:59:00,51.1,22.3,29.98,NE,40,8.0,17.0,32,0.00,,,0.00,meteohub,2013-02-08 22:59:00,
2013-02-08 15:04:00,51.1,22.3,29.98,NE,36,4.0,17.0,32,0.00,,,0.00,meteohub,2013-02-08 23:04:00,
2013-02-08 15:09:00,51.3,22.5,29.98,NW,313,9.0,17.0,32,0.00,,,0.00,meteohub,2013-02-08 23:09:00,
2013-02-08 15:14:00,51.1,23.7,29.98,NNE,13,10.0,15.0,34,0.00,,,0.00,meteohub,2013-02-08 23:14:00,
2013-02-08 15:19:00,51.1,25.7,29.99,NNE,27,13.0,16.0,37,0.00,,,0.00,meteohub,2013-02-08 23:19:00,
2013-02-08 15:24:00,50.4,23.0,29.98,ENE,69,11.0,16.0,34,0.00,,,0.00,meteohub,2013-02-08 23:24:00,
2013-02-08 15:29:00,49.6,23.7,29.99,NNE,15,4.0,17.0,36,0.00,,,0.00,meteohub,2013-02-08 23:29:00,
2013-02-08 15:34:00,49.6,22.5,29.98,NE,53,12.0,19.0,34,0.00,,,0.00,meteohub,2013-02-08 23:34:00,
2013-02-08 15:39:00,49.8,23.9,29.98,NE,37,9.0,19.0,36,0.00,,,0.00,meteohub,2013-02-08 23:39:00,
2013-02-08 15:44:00,49.5,21.6,29.98,NNW,342,13.0,19.0,33,0.00,,,0.00,meteohub,2013-02-08 23:44:00,
2013-02-08 15:49:00,49.3,22.1,29.98,NNE,22,6.0,19.0,34,0.00,,,0.00,meteohub,2013-02-08 23:49:00,
2013-02-08 15:54:00,48.9,23.7,29.98,NNE,26,7.0,19.0,37,0.00,,,0.00,meteohub,2013-02-08 23:54:00,
2013-02-08 15:59:00,49.1,22.6,29.98,NNE,22,8.0,19.0,35,0.00,,,0.00,meteohub,2013-02-08 23:59:00,
2013-02-08 16:04:00,49.1,21.9,29.98,NNE,29,8.0,18.0,34,0.00,,,0.00,meteohub,2013-02-09 00:04:00,
2013-02-08 16:09:00,48.9,21.7,29.98,North,0,10.0,18.0,34,0.00,,,0.00,meteohub,2013-02-09 00:09:00,
2013-02-08 16:15:00,48.9,22.5,29.98,NE,42,11.0,18.0,35,0.00,,,0.00,meteohub,2013-02-09 00:15:00,
2013-02-08 16:20:00,48.9,23.7,29.98,NNE,13,5.0,17.0,37,0.00,,,0.00,meteohub,2013-02-09 00:20:00,
2013-02-08 16:25:00,48.9,22.5,29.98,NE,38,4.0,16.0,35,0.00,,,0.00,meteohub,2013-02-09 00:25:00,
2013-02-08 16:30:00,48.9,23.2,29.98,ENE,59,9.0,14.0,36,0.00,,,0.00,meteohub,2013-02-09 00:30:00,
2013-02-08 16:35:00,48.7,23.0,29.98,NE,48,6.0,17.0,36,0.00,,,0.00,meteohub,2013-02-09 00:35:00,
2013-02-08 16:40:00,48.6,22.1,29.98,ENE,61,12.0,17.0,35,0.00,,,0.00,meteohub,2013-02-09 00:40:00,
2013-02-08 16:45:00,48.4,21.9,29.98,NE,53,8.0,18.0,35,0.00,,,0.00,meteohub,2013-02-09 00:45:00,
2013-02-08 16:50:00,48.2,21.7,29.98,NE,44,10.0,18.0,35,0.00,,,0.00,meteohub,2013-02-09 00:50:00,
2013-02-08 16:55:00,48.0,22.3,29.98,NNE,28,10.0,18.0,36,0.00,,,0.00,meteohub,2013-02-09 00:55:00,
2013-02-08 17:00:00,47.7,22.1,29.98,NNE,23,11.0,18.0,36,0.00,,,0.00,meteohub,2013-02-09 01:00:00,
2013-02-08 17:05:00,47.7,21.4,29.98,NNE,18,6.0,18.0,35,0.00,,,0.00,meteohub,2013-02-09 01:05:00,
2013-02-08 17:10:00,47.3,21.0,29.99,NE,38,6.0,18.0,35,0.00,,,0.00,meteohub,2013-02-09 01:10:00,
2013-02-08 17:15:00,47.1,21.6,29.99,NE,43,7.0,18.0,36,0.00,,,0.00,meteohub,2013-02-09 01:15:00,
2013-02-08 17:20:00,46.8,21.9,29.99,NNE,26,9.0,17.0,37,0.00,,,0.00,meteohub,2013-02-09 01:20:00,
2013-02-08 17:25:00,46.6,21.7,29.99,ENE,70,12.0,13.0,37,0.00,,,0.00,meteohub,2013-02-09 01:25:00,
2013-02-08 17:30:00,46.8,21.2,29.99,NE,35,8.0,14.0,36,0.00,,,0.00,meteohub,2013-02-09 01:30:00,
2013-02-08 17:35:00,46.8,21.9,29.99,NNE,15,10.0,14.0,37,0.00,,,0.00,meteohub,2013-02-09 01:35:00,
2013-02-08 17:40:00,46.6,21.7,29.99,NE,49,8.0,15.0,37,0.00,,,0.00,meteohub,2013-02-09 01:40:00,
2013-02-08 17:45:00,46.6,22.3,29.99,NNE,15,5.0,15.0,38,0.00,,,0.00,meteohub,2013-02-09 01:45:00,
2013-02-08 17:50:00,46.0,22.5,29.99,NNE,14,4.0,15.0,39,0.00,,,0.00,meteohub,2013-02-09 01:50:00,
2013-02-08 17:55:00,45.9,22.8,29.99,NE,44,7.0,14.0,40,0.00,,,0.00,meteohub,2013-02-09 01:55:00,
2013-02-08 18:00:00,45.9,22.8,29.99,NE,54,7.0,11.0,40,0.00,,,0.00,meteohub,2013-02-09 02:00:00,
2013-02-08 18:05:00,45.9,22.8,29.99,NNE,31,7.0,11.0,40,0.00,,,0.00,meteohub,2013-02-09 02:05:00,
2013-02-08 18:10:00,45.9,22.3,29.99,ENE,63,9.0,14.0,39,0.00,,,0.00,meteohub,2013-02-09 02:10:00,
2013-02-08 18:15:00,45.9,22.8,30.00,NE,42,11.0,14.0,40,0.00,,,0.00,meteohub,2013-02-09 02:15:00,
2013-02-08 18:20:00,45.7,23.4,30.00,North,0,6.0,14.0,41,0.00,,,0.00,meteohub,2013-02-09 02:20:00,
2013-02-08 18:25:00,45.7,22.1,30.00,ENE,57,11.0,17.0,39,0.00,,,0.00,meteohub,2013-02-09 02:25:00,
2013-02-08 18:30:00,45.9,22.3,30.00,NE,37,8.0,18.0,39,0.00,,,0.00,meteohub,2013-02-09 02:30:00,
2013-02-08 18:35:00,45.9,22.8,30.00,North,11,6.0,18.0,40,0.00,,,0.00,meteohub,2013-02-09 02:35:00,
2013-02-08 18:40:00,45.7,22.8,30.00,NNE,24,7.0,18.0,40,0.00,,,0.00,meteohub,2013-02-09 02:40:00,
2013-02-08 18:45:00,45.3,23.5,30.01,NE,42,7.0,16.0,42,0.00,,,0.00,meteohub,2013-02-09 02:45:00,
2013-02-08 18:50:00,45.3,23.5,30.01,NNE,16,6.0,13.0,42,0.00,,,0.00,meteohub,2013-02-09 02:50:00,
2013-02-08 18:55:00,45.1,23.4,30.01,NNE,15,8.0,13.0,42,0.00,,,0.00,meteohub,2013-02-09 02:55:00,
2013-02-08 19:00:00,45.1,23.4,30.01,NNE,12,6.0,14.0,42,0.00,,,0.00,meteohub,2013-02-09 03:00:00,
2013-02-08 19:05:00,45.0,23.7,30.01,NNW,339,6.0,14.0,43,0.00,,,0.00,meteohub,2013-02-09 03:05:00,
2013-02-08 19:10:00,44.8,23.7,30.01,NE,53,6.0,14.0,43,0.00,,,0.00,meteohub,2013-02-09 03:10:00,
2013-02-08 19:15:00,44.6,24.1,30.01,NE,53,5.0,14.0,44,0.00,,,0.00,meteohub,2013-02-09 03:15:00,
2013-02-08 19:20:00,44.6,23.5,30.01,NNE,19,9.0,13.0,43,0.00,,,0.00,meteohub,2013-02-09 03:20:00,
2013-02-08 19:26:00,44.4,23.4,30.00,NE,36,3.0,13.0,43,0.00,,,0.00,meteohub,2013-02-09 03:26:00,
2013-02-08 19:31:00,44.2,23.2,30.01,NW,323,3.0,13.0,43,0.00,,,0.00,meteohub,2013-02-09 03:31:00,
2013-02-08 19:36:00,44.2,23.2,30.01,NNE,30,8.0,12.0,43,0.00,,,0.00,meteohub,2013-02-09 03:36:00,
2013-02-08 19:41:00,44.2,23.7,30.01,ENE,57,5.0,14.0,44,0.00,,,0.00,meteohub,2013-02-09 03:41:00,
2013-02-08 19:46:00,44.2,23.2,30.01,NNE,24,9.0,14.0,43,0.00,,,0.00,meteohub,2013-02-09 03:46:00,
2013-02-08 19:51:00,44.2,23.2,30.01,NNE,19,6.0,15.0,43,0.00,,,0.00,meteohub,2013-02-09 03:51:00,
2013-02-08 19:56:00,44.2,23.7,30.01,North,5,3.0,15.0,44,0.00,,,0.00,meteohub,2013-02-09 03:56:00,
2013-02-08 20:01:00,44.1,24.1,30.01,NNE,26,3.0,15.0,45,0.00,,,0.00,meteohub,2013-02-09 04:01:00,
2013-02-08 20:06:00,43.5,23.5,30.01,NNE,28,11.0,13.0,45,0.00,,,0.00,meteohub,2013-02-09 04:06:00,
2013-02-08 20:11:00,43.7,23.7,30.01,North,5,8.0,13.0,45,0.00,,,0.00,meteohub,2013-02-09 04:11:00,
2013-02-08 20:16:00,43.7,23.7,30.01,ENE,78,8.0,12.0,45,0.00,,,0.00,meteohub,2013-02-09 04:16:00,
2013-02-08 20:21:00,43.7,23.7,30.01,NNW,329,9.0,12.0,45,0.00,,,0.00,meteohub,2013-02-09 04:21:00,
2013-02-08 20:26:00,43.9,23.9,30.01,North,350,3.0,12.0,45,0.00,,,0.00,meteohub,2013-02-09 04:26:00,
2013-02-08 20:31:00,43.7,23.7,30.01,NNW,335,8.0,13.0,45,0.00,,,0.00,meteohub,2013-02-09 04:31:00,
2013-02-08 20:36:00,43.7,23.7,30.01,NE,54,9.0,13.0,45,0.00,,,0.00,meteohub,2013-02-09 04:36:00,
2013-02-08 20:41:00,43.7,23.2,30.01,ENE,58,10.0,13.0,44,0.00,,,0.00,meteohub,2013-02-09 04:41:00,
2013-02-08 20:46:00,43.7,23.7,30.01,North,9,4.0,14.0,45,0.00,,,0.00,meteohub,2013-02-09 04:46:00,
2013-02-08 20:51:00,43.7,23.2,30.01,NNE,31,7.0,14.0,44,0.00,,,0.00,meteohub,2013-02-09 04:51:00,
2013-02-08 20:56:00,43.7,23.2,30.01,NNW,337,11.0,14.0,44,0.00,,,0.00,meteohub,2013-02-09 04:56:00,
2013-02-08 21:00:00,43.7,23.2,30.01,North,349,5.0,14.0,44,0.00,,,0.00,meteohub,2013-02-09 05:00:00,
2013-02-08 21:01:00,43.7,23.2,30.01,NE,44,5.0,14.0,44,0.00,,,0.00,meteohub,2013-02-09 05:01:00,
2013-02-08 21:06:00,43.5,22.5,30.01,NE,46,6.0,16.0,43,0.00,,,0.00,meteohub,2013-02-09 05:06:00,
2013-02-08 21:11:00,43.9,22.3,30.01,NE,53,9.0,20.0,42,0.00,,,0.00,meteohub,2013-02-09 05:11:00,
2013-02-08 21:16:00,44.1,22.5,30.01,NE,45,5.0,20.0,42,0.00,,,0.00,meteohub,2013-02-09 05:16:00,
2013-02-08 21:21:00,44.1,21.9,30.01,NE,53,15.0,20.0,41,0.00,,,0.00,meteohub,2013-02-09 05:21:00,
2013-02-08 21:26:00,43.9,22.3,30.01,NNE,16,5.0,19.0,42,0.00,,,0.00,meteohub,2013-02-09 05:26:00,
2013-02-08 21:31:00,43.7,22.1,30.01,NE,44,5.0,16.0,42,0.00,,,0.00,meteohub,2013-02-09 05:31:00,
2013-02-08 21:36:00,43.5,21.9,30.01,NE,55,6.0,16.0,42,0.00,,,0.00,meteohub,2013-02-09 05:36:00,
2013-02-08 21:41:00,43.5,21.9,30.01,ENE,65,5.0,15.0,42,0.00,,,0.00,meteohub,2013-02-09 05:41:00,
2013-02-08 21:46:00,43.5,21.9,30.02,NNE,20,10.0,15.0,42,0.00,,,0.00,meteohub,2013-02-09 05:46:00,
2013-02-08 21:51:00,43.3,21.7,30.02,NNE,22,2.0,15.0,42,0.00,,,0.00,meteohub,2013-02-09 05:51:00,
2013-02-08 21:56:00,43.2,22.1,30.02,NNE,28,3.0,13.0,43,0.00,,,0.00,meteohub,2013-02-09 05:56:00,
2013-02-08 22:01:00,43.0,22.1,30.02,NNE,30,5.0,13.0,43,0.00,,,0.00,meteohub,2013-02-09 06:01:00,
2013-02-08 22:06:00,43.0,22.6,30.02,NNE,28,5.0,10.0,44,0.00,,,0.00,meteohub,2013-02-09 06:06:00,
2013-02-08 22:11:00,42.8,22.5,30.02,NW,321,4.0,10.0,44,0.00,,,0.00,meteohub,2013-02-09 06:11:00,
2013-02-08 22:16:00,42.6,22.8,30.02,ENE,62,4.0,10.0,45,0.00,,,0.00,meteohub,2013-02-09 06:16:00,
2013-02-08 22:21:00,42.4,22.6,30.02,North,0,6.0,9.0,45,0.00,,,0.00,meteohub,2013-02-09 06:21:00,
2013-02-08 22:26:00,42.4,22.6,30.02,NNE,30,7.0,12.0,45,0.00,,,0.00,meteohub,2013-02-09 06:26:00,
2013-02-08 22:31:00,42.6,22.3,30.02,ENE,61,8.0,14.0,44,0.00,,,0.00,meteohub,2013-02-09 06:31:00,
2013-02-08 22:36:00,42.8,23.0,30.02,ENE,63,12.0,15.0,45,0.00,,,0.00,meteohub,2013-02-09 06:36:00,
2013-02-08 22:41:00,43.0,22.6,30.02,NNE,15,3.0,17.0,44,0.00,,,0.00,meteohub,2013-02-09 06:41:00,
2013-02-08 22:46:00,42.6,22.8,30.02,ENE,63,5.0,17.0,45,0.00,,,0.00,meteohub,2013-02-09 06:46:00,
2013-02-08 22:51:00,42.6,22.8,30.02,NNE,14,6.0,17.0,45,0.00,,,0.00,meteohub,2013-02-09 06:51:00,
2013-02-08 22:56:00,42.6,23.4,30.02,NE,54,7.0,11.0,46,0.00,,,0.00,meteohub,2013-02-09 06:56:00,
2013-02-08 23:01:00,42.4,22.6,30.02,North,355,5.0,11.0,45,0.00,,,0.00,meteohub,2013-02-09 07:01:00,
2013-02-08 23:06:00,42.4,23.2,30.02,NE,44,5.0,14.0,46,0.00,,,0.00,meteohub,2013-02-09 07:06:00,
2013-02-08 23:11:00,42.4,23.2,30.02,NE,44,7.0,16.0,46,0.00,,,0.00,meteohub,2013-02-09 07:11:00,
2013-02-08 23:16:00,42.4,23.2,30.02,NE,34,7.0,16.0,46,0.00,,,0.00,meteohub,2013-02-09 07:16:00,
2013-02-08 23:21:00,42.4,23.2,30.02,North,5,5.0,16.0,46,0.00,,,0.00,meteohub,2013-02-09 07:21:00,
2013-02-08 23:26:00,42.3,23.0,30.02,ENE,64,7.0,13.0,46,0.00,,,0.00,meteohub,2013-02-09 07:26:00,
2013-02-08 23:31:00,42.3,23.0,30.02,North,0,9.0,13.0,46,0.00,,,0.00,meteohub,2013-02-09 07:31:00,
2013-02-08 23:36:00,42.3,23.0,30.03,NE,51,4.0,13.0,46,0.00,,,0.00,meteohub,2013-02-09 07:36:00,
2013-02-08 23:41:00,42.1,22.8,30.03,NE,49,6.0,13.0,46,0.00,,,0.00,meteohub,2013-02-09 07:41:00,
2013-02-08 23:46:00,42.1,23.4,30.03,NE,48,7.0,11.0,47,0.00,,,0.00,meteohub,2013-02-09 07:46:00,
2013-02-08 23:51:00,42.1,22.8,30.03,NE,35,5.0,11.0,46,0.00,,,0.00,meteohub,2013-02-09 07:51:00,
2013-02-08 23:56:00,42.1,22.8,30.03,NE,51,8.0,11.0,46,0.00,,,0.00,meteohub,2013-02-09 07:56:00,